Flag for India Weather past 2 weeks in Vasai-Virar, Maharashtra, India

Now
84 °F

Passing clouds.


Feels Like: 94 °F
Forecast: 79 / 95 °F
Wind: 3 mph from Northwest

Location: Bombay / Santacruz

Current Time: Apr 27, 2015 at 3:12:04 AM

Latest Report: Apr 27, 2015 at 2:10 AM


Visibility: 3 mi

Pressure: 29.77 "Hg

Humidity: 79%

Dew point: 77 °F

Location of Vasai-VirarLocation

Historic Weather in Vasai-Virar — Graph

°F

Vasai-Virar temperature yesterday

Maximum temperature yesterday: 91 °F (at 1:10 PM)
Minimum temperature yesterday: 81 °F (at 6:10 AM)
Average temperature yesterday: 85 °F

Past Weeks' High & Low Weather Summary

 TemperatureHumidityPressure
High93 °F (Apr 16, 11:40 AM)94% (Apr 24, 7:10 AM)29.95 "Hg (Apr 24, 7:10 AM)
Low77 °F (Apr 15, 2:10 AM)41% (Apr 17, 3:40 PM)29.68 "Hg (Apr 18, 4:40 PM)
Average86 °F72%29.82 "Hg
* Reported Apr 12 1:40 AM — Apr 27 1:40 AM, Vasai-Virar, Weather by CustomWeather, © 2015

Note: Actual official high and low records may vary slightly from our data, if they occured in-between our weather recording intervals... More about our weather records

Advertising

Vasai-Virar weather history for previous 24 hours

 ConditionsComfort  
Time TempWeatherWind HumidityBarometerVisibility
1:40 AM
Mon, Apr 27
84 °FPassing clouds.3 mph79%29.80 "Hg3 mi
1:10 AM84 °FPassing clouds.5 mph79%29.80 "Hg3 mi
12:10 AM84 °FPassing clouds.5 mph79%29.80 "Hg2 mi
11:40 PM
Sun, Apr 26
84 °FPassing clouds.5 mph79%29.80 "Hg2 mi
11:10 PM84 °FPassing clouds.5 mph79%29.80 "Hg2 mi
10:40 PM84 °FPassing clouds.5 mph79%29.80 "Hg2 mi
10:10 PM84 °FPassing clouds.6 mph79%29.80 "Hg2 mi
9:40 PM84 °FPassing clouds.5 mph79%29.80 "Hg2 mi
9:10 PM84 °FPassing clouds.6 mph79%29.80 "Hg2 mi
8:40 PM84 °FPassing clouds.8 mph79%29.80 "Hg2 mi
8:10 PM84 °FPassing clouds.5 mph79%29.80 "Hg2 mi
7:40 PM86 °FPassing clouds.7 mph75%29.77 "Hg3 mi
7:10 PM86 °FScattered clouds.9 mph75%29.77 "Hg3 mi
6:40 PM86 °FScattered clouds.9 mph75%29.77 "Hg4 mi
6:10 PM86 °FScattered clouds.12 mph75%29.74 "Hg4 mi
5:40 PM86 °FScattered clouds.14 mph75%29.74 "HgN/A
5:10 PM88 °FScattered clouds.12 mph70%29.74 "HgN/A
4:40 PM88 °FScattered clouds.9 mph70%29.74 "HgN/A
4:10 PM88 °FPassing clouds.13 mph66%29.77 "HgN/A
3:40 PM88 °FPassing clouds.9 mph70%29.77 "HgN/A
3:10 PM90 °FPassing clouds.14 mph67%29.77 "Hg5 mi
2:40 PM90 °FPassing clouds.10 mph63%29.80 "Hg4 mi
1:40 PM90 °FHaze.15 mph63%29.80 "Hg2 mi
1:10 PM91 °FHaze.13 mph56%29.83 "Hg2 mi
12:40 PM90 °FHaze.12 mph59%29.83 "Hg2 mi
12:10 PM90 °FHaze.14 mph59%29.86 "Hg2 mi
11:40 AM90 °FHaze.10 mph63%29.86 "Hg2 mi
11:10 AM90 °FScattered clouds.8 mph63%29.86 "Hg2 mi
10:40 AM90 °FScattered clouds.6 mph59%29.86 "Hg2 mi
10:10 AM88 °FScattered clouds.6 mph62%29.86 "Hg2 mi
9:40 AM88 °FScattered clouds.6 mph62%29.86 "Hg2 mi
9:10 AM86 °FScattered clouds.5 mph70%29.86 "Hg2 mi
8:10 AM84 °FHaze.5 mph74%29.86 "Hg1 mi
7:40 AM82 °FHaze.6 mph79%29.83 "Hg2 mi
7:10 AM81 °FHaze.6 mph79%29.83 "Hg2 mi
6:40 AM81 °FHaze.5 mph84%29.83 "Hg2 mi
6:10 AM81 °FHaze.5 mph84%29.80 "Hg2 mi
5:10 AM82 °FHaze.No wind79%29.80 "Hg2 mi
4:40 AM82 °FHaze.5 mph79%29.77 "Hg2 mi
4:10 AM82 °FHaze.No wind74%29.77 "Hg2 mi
3:40 AM82 °FHaze.No wind74%29.77 "Hg2 mi
3:10 AM82 °FHaze.No wind74%29.77 "Hg2 mi
Weather by CustomWeather, © 2015

See weather overviewHow to use our weather pages